Simultaneous Nadir Overpasses (SNOs) Predictions

Prediction of SNOs between AQUA and METOP-C Satellite Orbit:

Table of predicted SNOs for the next 14.0 days since TLE Epoch: 7/26/2025
Index Date (AQUA) Time (AQUA) Lat,Lon (AQUA) SZA (AQUA ) Date (METOP-C) Time (METOP-C) Lat,Lon (METOP-C) SZA (METOP-C ) Distance(km) Time Diff (sec)
1 07/27/2025 22:49:22 76.77,-158.95 57.72 07/27/2025 22:48:32 76.75,-159.00 57.70 3.21 50
2 07/27/2025 23:38:40 -76.81, 8.60 122.24 07/27/2025 23:39:12 -76.83, 8.67 122.21 3.31 32
3 07/30/2025 10:48:03 -76.60,-157.95 121.85 07/30/2025 10:46:53 -76.49,-159.53 121.97 42.53 70
4 07/30/2025 11:37:26 76.81, 8.96 58.37 07/30/2025 11:37:26 76.78, 8.92 58.34 3.61 0
5 07/30/2025 12:26:52 -77.21, 175.09 121.23 07/30/2025 12:27:58 -77.22, 178.04 121.20 72.59 66
6 08/01/2025 23:36:10 -76.81, 9.34 121.01 08/01/2025 23:35:41 -76.79, 9.40 121.03 2.66 29
7 08/02/2025 00:25:29 76.84, 176.92 59.03 08/02/2025 00:26:19 76.86, 176.99 59.05 2.63 50
8 08/04/2025 11:34:54 76.79, 9.81 59.63 08/04/2025 11:33:54 76.77, 9.76 59.61 2.69 60
9 08/04/2025 12:24:12 -76.82, 177.37 120.34 08/04/2025 12:24:35 -76.82, 177.28 120.34 2.21 23
10 08/07/2025 00:22:55 76.83, 177.71 60.37 08/07/2025 00:22:46 76.83, 177.79 60.37 1.96 9



Historial Predications of SNOs between AQUA and METOP-C
